Regional Weather Roundup
Issued by NWS Portland, ME

Current Version | Previous Version | Text Only | Print | Product List | Glossary Off
Versions: 1 2 3 4 5 6 7 8 9 10 11 12 13 14 15 16 17 18 19 20 21 22 23 24 25 26 27 28 29 30 31 32 33 34 35 36 37 38 39 40 41 42 43 44 45 46 47 48 49 50

208
ASUS41 KGYX 040505
RWRGYX
WEATHER ROUNDUP FOR MAINE AND NEW HAMPSHIRE
NATIONAL WEATHER SERVICE GRAY ME
100 AM EDT WED MAY 04 2016

MEZ002-005-006-010-012-015-018-020-021-024-026-027-029-040600-
MAINE

CITY           SKY/WX    TMP DP  RH WIND       PRES   REMARKS
PORTLAND       CLOUDY    45  42  89 W5        29.89R
SANFORD        CLOUDY    43  39  87 CALM      29.89S
BAR HARBOR     CLOUDY    45  42  89 N3        29.89S
WISCASSET      CLOUDY    45  43  93 CALM      29.89F
ROCKLAND       CLOUDY    45  43  93 NE5       29.88F
FRYEBURG       CLOUDY    44  43  96 CALM      29.87S
LEWISTONAUBURN CLOUDY    45  39  81 CALM      29.87F
AUGUSTA        CLOUDY    46  42  86 NE5       29.88F
WATERVILLE     CLOUDY    46  41  82 NE3       29.86S
BANGOR         CLOUDY    49  42  77 N3        29.89S
GREENVILLE       N/A     40  39  97 CALM      29.85S
MILLINOCKET    CLOUDY    44  39  82 CALM      29.90S
HOULTON        CLOUDY    43  39  86 E7        29.88S
PRESQUE ISLE   CLOUDY    42  38  85 N6        29.90S
FRENCHVILLE    CLOUDY    39  35  86 N3        29.89S
CARIBOU        CLOUDY    42  37  82 N5        29.88F
$$

NHZ002-005-008-009-011-012-014-040600-
NEW HAMPSHIRE

CITY           SKY/WX    TMP DP  RH WIND       PRES   REMARKS
PORTSMOUTH     PTCLDY    44  41  89 NW2       29.86F
ROCHESTER      CLOUDY    45  41  86 CALM      29.86F
NASHUA         CLOUDY    47  43  86 CALM      29.87F
MANCHESTER     MOCLDY    47  40  76 E3        29.85F
CONCORD        CLOUDY    47  41  80 CALM      29.86F
LACONIA        CLOUDY    46  41  81 CALM      29.86F
PLYMOUTH       CLOUDY    44  43  97 CALM      29.86S
BERLIN         CLOUDY    43  39  86 CALM      29.84F
WHITEFIELD     CLOUDY    41  38  89 CALM      29.84F
JAFFREY        CLOUDY    45  42  89 CALM      29.85F
KEENE          CLOUDY    46  45  93 CALM      29.85F
LEBANON        CLOUDY    45  41  86 CALM      29.84F
MT WASHINGTON  MOCLDY    30  19  64 W15         N/A  WCI  19
$$

VTZ005-007-008-040600-
VERMONT

CITY           SKY/WX    TMP DP  RH WIND       PRES   REMARKS
ST JOHNSBURY     N/A     42  39  89 MISG      29.84S
MONTPELIER     CLOUDY    39  37  92 CALM      29.87F
BURLINGTON     CLOUDY    43  38  82 CALM      29.83F
$$

MAZ007-012-024-CTZ003-RIZ002-NYZ038-NYZ072-040600-
SOUTHERN NEW ENGLAND AND NY

CITY           SKY/WX    TMP DP  RH WIND       PRES   REMARKS
BOSTON         CLOUDY    45  42  89 NE5       29.87F
WORCESTER      CLOUDY    43  41  93 NE5       29.84F
NANTUCKET      CLOUDY    47  44  90 NE8       29.84S
PROVIDENCE     CLOUDY    47  40  76 NE7       29.86F
HARTFORD       CLOUDY    50  46  86 E9        29.83F
ALBANY         DRZL/FOG  49  47  93 CALM      29.83S VSB 1
NEW YORK CITY  CLOUDY    51  51 100 SE6       29.83R FOG
$$

ANZ081-ANZ082-ANZ150-NHZ014-MEZ023>029-040600-
COASTAL MARINE OBSERVATIONS

STATION/POSITION TIME  TEMP    WIND        PRES    WAVE
                       AIR SEA DIR/SP/G            HT/PER
                 (UTC) (F)     (DEG/KT/KT) (MB)    (FT/S)
MOUNT DESERT ROC 0400   44     360/  4/  5 1012.0S
MATINICUS ROCK   0400   44     310/  2/  2 1011.8R
ISLE OF SHOALS   0400   45     250/  2/  2 1011.9S
CASHES LEDGE BUO 0450   45 45  360/  8/  8 1011.4F   3/ 8
GEORGES BANK BUO 0350   45 45              1007.9    6/ 7
$$

.............KEY..............
   WCI - WIND CHILL
   TC  - TEMPERATURE IN CELSIUS
   VSB - VISIBILITY IN MILES
   HX  - HEAT INDEX
   FAIR- INDICATES FEW OR NO CLOUDS BELOW 12,000 FT, WITH NO
         SIGNIFICANT WEATHER AND/OR OBSTRUCTIONS TO VISIBILITY.






USA.gov is the U.S. government's official web portal to all federal, state and local government web resources and services.